User: anonymous   Login
Location: Unspecified
(0.0000°N, 0.0000°E)
Time: 03:11:03
(UTC+00:00)
Language:

STRAND 1 - Orbit

View from above orbital plane
View from above orbital plane
View from above satellite
View from above satellite

Ground track
Ground track

The orbit data is extracted from the following two-line orbital elements,

1 39090U 13009E   20185.81219730 +.00000037 +00000-0 +27916-4 0  9990
2 39090 098.4552 029.6881 0008119 231.6137 128.4320 14.35135843385038
Epoch (UTC): 03 July 2020 19:29:33
Eccentricity: 0.0008119
inclination: 98.4552°
perigee height: 769 km
apogee height: 780 km
right ascension of ascending node: 29.6881°
argument of perigee: 231.6137°
revolutions per day: 14.35135843
mean anomaly at epoch: 128.4320°
orbit number at epoch: 38503

The dashed part of the orbit path shows where the satellite is in the earth's shadow,  

DLR